CAPE
0 0 0 0 0 0 0 0 0 0 0 0 0 0 0 0 0 0 0 0 0 0 0 0 0 0 0 2 3 0 0 0 0 0 0 0 0 0 0 0 0 0 0
0 0 0 0 0 0 0 0 0 0 0 0 0 0 0 0 0 0 0 0 0 0 0 0 0 0 0 0 0 0 0 0 0 0 0 0 0 0 0 0 0 0 0
0 0 0 0 0 0 0 0 0 0 0 0 0 0 0 0 0 0 0 0 0 0 0 0 0 0 0 0 0 0 0 0 0 0 0 0 0 0 0 0 0 0 0
0 0 0 0 0 0 0 0 0 0 0 0 0 0 0 0 0 0 0 0 0 0 0 0 0 0 0 0 0 0 0 0 0 0 0 0 0 0 0 0 0 0 0
0 0 0 0 0 0 0 0 0 0 0 0 0 0 0 0 0 0 0 0 0 0 0 0 0 0 0 0 0 0 0 0 0 0 0 0 0 0 0 0 0 0 0
0 0 0 0 0 0 0 0 0 0 0 0 0 0 0 0 0 0 0 0 0 0 0 0 0 0 0 0 0 0 0 0 0 0 0 0 0 0 0 0 0 0 0
0 0 0 0 0 0 0 0 0 0 0 0 0 0 0 0 0 0 0 0 0 0 0 0 0 0 0 0 0 0 0 0 0 0 0 0 0 0 0 0 0 0 0
0 0 0 0 0 0 0 0 0 0 0 0 0 0 0 0 0 0 0 0 0 0 0 0 0 0 0 0 0 0 0 0 0 0 0 0 0 0 0 0 0 0 0
0 0 0 0 0 0 0 0 0 0 0 0 0 0 0 0 0 0 0 0 0 0 0 0 0 0 0 0 0 0 2 8 0 0 0 0 0 0 0 0 0 0 0
0 0 0 0 0 0 0 0 0 0 0 0 0 0 0 0 0 0 0 0 0 0 0 0 0 0 0 0 0 0 0 11 2 0 0 0 0 5 6 2 0 0 0
0 0 0 0 0 0 0 0 0 0 0 0 0 0 0 0 0 0 0 0 0 0 0 0 0 1 1 1 0 0 0 2 6 0 0 1 3 2 9 18 0 0 0
0 0 0 0 0 0 0 0 0 0 0 0 0 0 0 0 0 0 0 0 0 0 5 4 0 7 7 14 2 0 0 0 3 0 4 4 0 0 3 21 25 0 0
0 0 0 0 0 0 0 0 0 0 0 0 0 0 0 0 0 0 0 0 0 5 6 6 13 15 18 24 28 21 0 0 0 0 10 16 0 0 0 2 24 23 1
0 0 0 0 0 0 0 0 0 0 0 0 0 0 0 0 0 0 0 0 1 2 6 9 12 15 13 26 36 28 17 53 48 9 24 5 2 0 1 0 0 19 10
0 0 0 0 0 0 0 0 0 0 0 0 0 0 0 1 1 1 2 4 4 4 4 8 7 21 19 4 0 6 59 61 57 23 17 2 0 0 0 1 2 9 12
0 0 0 0 0 0 0 0 0 0 0 0 0 2 1 10 5 0 0 3 2 3 5 1 2 9 14 11 8 9 45 55 45 15 7 2 0 0 2 8 16 17 12
0 0 0 0 0 0 0 0 0 0 0 0 0 1 1 7 2 1 3 1 8 14 13 12 12 2 5 12 17 34 70 58 32 27 27 12 1 4 5 8 15 24 30
0 0 0 0 0 0 0 0 0 0 0 1 0 8 6 5 5 7 1 8 5 17 12 18 12 6 8 13 31 44 54 39 27 27 20 8 1 5 2 6 4 3 17
0 0 0 0 0 0 0 0 0 0 1 1 8 3 1 2 10 12 5 3 8 1 14 11 11 4 8 13 16 28 31 32 19 16 7 0 0 1 3 4 4 4 6
0 0 0 0 0 0 0 1 0 2 1 2 3 4 6 16 3 4 3 1 3 12 7 8 3 9 5 5 14 25 25 15 12 7 0 0 5 7 8 11 18 6 21
0 0 0 0 0 0 1 2 1 3 6 4 8 10 3 4 2 2 2 3 12 2 8 15 20 12 9 9 9 13 11 8 3 0 0 2 5 5 14 22 16 8 14
0 0 0 0 0 0 1 2 4 5 12 11 10 6 2 2 2 2 1 1 11 17 21 12 12 11 0 6 11 10 6 5 10 5 4 9 4 10 13 12 10 10 31
0 0 0 0 0 1 1 7 5 10 12 6 3 2 2 2 1 2 1 4 4 12 18 10 2 0 3 4 4 5 9 9 9 19 10 16 18 9 11 12 8 19 17
0 0 0 0 1 2 1 2 1 8 5 7 3 2 2 3 2 2 2 3 7 4 8 11 8 7 3 5 5 4 0 0 12 14 4 5 15 12 11 6 11 14 1
0 0 0 0 1 3 0 8 6 5 4 3 2 2 2 2 2 2 2 2 4 6 12 6 4 3 5 1 1 3 0 1 2 4 8 1 4 7 3 2 1 1 0
0 0 0 1 1 1 1 2 4 2 2 2 2 2 3 2 2 3 2 2 4 7 9 9 13 8 9 12 13 12 10 7 6 7 9 7 2 1 2 1 1 0 0
CIN
-0 -0 -0 -0 -0 -0 -0 -0 -0 -0 -0 -0 -0 -0 -0 -0 -0 -0 -0 -0 -0 -0 -0 -0 -0 -0 -0 -0 -0 -0 -0 -0 -0 -0 -0 -0 -0 -0 -0 -0 -0 -0 -0
-0 -0 -0 -0 -0 -0 -0 -0 -0 -0 -0 -0 -0 -0 -0 -0 -0 -0 -0 -0 -0 -0 -0 -0 -0 -0 -0 -0 -0 -0 -1 -0 -0 -0 -0 -0 -0 -0 -0 -0 -0 -0 -0
-0 -0 -0 -0 -0 -0 -0 -0 -0 -0 -0 -0 -0 -0 -0 -0 -0 -0 -0 -0 -0 -0 -0 -0 -0 -0 -0 -0 -0 -0 -0 -0 -0 -0 -0 -0 -0 -0 -0 -0 -0 -0 -0
-0 -0 -0 -0 -0 -0 -0 -0 -0 -0 -0 -0 -0 -0 -0 -0 -0 -0 -0 -0 -0 -0 -0 -0 -0 -0 -0 -0 -0 -0 -0 -0 -0 -0 -0 -0 -0 -0 -0 -0 -0 -0 -0
-0 -0 -0 -0 -0 -0 -0 -0 -0 -0 -0 -0 -0 -0 -0 -0 -0 -0 -0 -0 -0 -0 -0 -0 -0 -0 -0 -0 -0 -0 -0 -0 -0 -0 -0 -0 -0 -0 -0 -0 -0 -0 -0
-0 -0 -0 -0 -0 -0 -0 -0 -0 -0 -0 -0 -0 -0 -0 -0 -0 -0 -0 -0 -0 -0 -0 -0 -0 -0 -0 -0 -0 -0 -0 -0 -0 -0 -0 -0 -0 -0 -0 -0 -0 -0 -0
-0 -0 -0 -0 -0 -0 -0 -0 -0 -0 -0 -0 -0 -0 -0 -0 -0 -0 -0 -0 -0 -0 -0 -0 -0 -0 -0 -0 -0 -0 -0 -0 -0 -0 -0 -0 -0 -0 -0 -0 -0 -0 -0
-0 -0 -0 -0 -0 -0 -0 -0 -0 -0 -0 -0 -0 -0 -0 -0 -0 -0 -0 -0 -0 -0 -0 -0 -0 -0 -0 -0 -0 -0 -0 -0 -0 -0 -0 -0 -0 -0 -0 -0 -0 -0 -0
-0 -0 -0 -0 -0 -0 -0 -0 -0 -0 -0 -0 -0 -0 -0 -0 -0 -0 -0 -0 -0 -0 -0 -0 -0 -0 -0 -0 -0 -0 -2 -2 -0 -0 -0 -0 -0 -0 -0 -0 -0 -0 -0
-0 -0 -0 -0 -0 -0 -0 -0 -0 -0 -0 -0 -0 -0 -0 -0 -0 -0 -0 -0 -0 -0 -0 -0 -0 -0 -0 -0 -0 -0 -0 -2 -1 -0 -0 -0 -0 -1 -2 -1 -0 -0 -0
-0 -0 -0 -0 -0 -0 -0 -0 -0 -0 -0 -0 -0 -0 -0 -0 -0 -0 -0 -0 -0 -0 -0 -1 -0 -0 -4 -1 -0 -0 -0 -2 -3 -0 -0 -2 -2 -3 -1 -2 -0 -0 -0
-0 -0 -0 -0 -0 -0 -0 -0 -0 -0 -0 -0 -0 -0 -0 -0 -0 -0 -0 -0 -0 -0 -2 -3 -2 -4 -4 -4 -4 -0 -0 -0 -2 -0 -40 -61 -1 -2 -2 -1 -2 -0 -0
-0 -0 -0 -0 -0 -0 -0 -0 -0 -0 -0 -0 -0 -0 -0 -0 -0 -0 -0 -0 -3 -3 -3 -3 -4 -4 -4 -5 -4 -4 -0 -0 -0 -0 -11 -51 -20 -2 -0 -1 -2 -2 -1
-0 -0 -0 -0 -0 -0 -0 -0 -0 -0 -0 -0 -0 -0 -0 -0 -1 -3 -1 -2 -2 -4 -3 -4 -4 -1 -4 -5 -3 -4 -3 -3 -2 -2 -17 -37 -45 -0 -2 -1 -1 -2 -0
-0 -0 -0 -0 -0 -0 -0 -0 -0 -0 -0 -0 -0 -0 -0 -2 -2 -3 -3 -1 -3 -3 -1 -1 -0 -0 -0 -6 -1 -8 -3 -2 -2 -3 -2 -1 -0 -0 -0 -2 -2 -2 -1
-0 -0 -0 -0 -0 -0 -0 -0 -0 -0 -0 -0 -0 -1 -2 -0 -2 -1 -1 -1 -3 -2 -1 -7 -2 -0 -0 -4 -2 -4 -5 -3 -3 -3 -4 -1 -0 -0 -2 -1 -69 -38 -1
-0 -0 -0 -0 -0 -0 -0 -0 -0 -0 -0 -3 -3 -1 -3 -1 -1 -0 -0 -4 -1 -3 -3 -3 -2 -2 -1 -2 -2 -1 -2 -2 -3 -3 -3 -3 -3 -1 -2 -2 -1 -49 -18
-0 -0 -0 -0 -0 -0 -0 -0 -0 -1 -0 -0 -0 -0 -0 -0 -0 -0 -0 -0 -0 -1 -1 -2 -2 -4 -1 -2 -2 -1 -2 -2 -4 -2 -3 -3 -3 -2 -2 -2 -5 -3 -2
-0 -0 -0 -0 -0 -0 -0 -0 -0 -0 -0 -0 -0 -0 -2 -0 -0 -0 -0 -0 -0 -1 -1 -1 -3 -3 -3 -1 -1 -2 -1 -2 -3 -3 -2 -0 -0 -1 -1 -2 -2 -4 -1
-0 -0 -0 -0 -0 -0 -1 -2 -0 -0 -2 -0 -1 -0 -0 -0 -0 -0 -2 -0 -0 -0 -0 -0 -1 -2 -3 -3 -2 -1 -2 -2 -3 -2 -0 -0 -1 -0 -1 -1 -1 -0 -102
-0 -0 -0 -0 -0 -1 -1 -0 -0 -0 -0 -0 -0 -0 -3 -0 -0 -0 -1 -1 -0 -0 -0 -0 -1 -1 -2 -1 -1 -1 -3 -2 -2 -0 -1 -2 -1 -0 -1 -1 -1 -191 -121
-0 -0 -0 -0 -0 -1 -2 -0 -1 -0 -0 -0 -0 -0 -0 -0 -0 -0 -4 -0 -1 -0 -1 -1 -1 -1 -5 -3 -2 -3 -3 -2 -0 -1 -1 -1 -1 -1 -1 -1 -51 -145 -67
-0 -0 -0 -0 -1 -1 -1 -0 -0 -0 -0 -0 -0 -0 -0 -0 -0 -0 -0 -0 -1 -0 -0 -0 -0 -2 -2 -2 -2 -1 -1 -1 -1 -1 -2 -1 -1 -1 -1 -1 -1 -116 -3
-0 -0 -0 -0 -1 -1 -2 -1 -1 -0 -1 -0 -0 -0 -0 -0 -0 -0 -0 -0 -0 -0 -0 -0 -1 -1 -0 -0 -1 -1 -0 -0 -1 -1 -1 -1 -0 -1 -0 -0 -1 -1 -0
-0 -0 -0 -0 -1 -1 -1 -1 -0 -1 -0 -0 -0 -0 -0 -0 -0 -0 -0 -0 -0 -0 -0 -1 -1 -2 -0 -0 -0 -0 -0 -0 -0 -0 -0 -0 -0 -0 -0 -0 -0 -0 -0
-0 -0 -0 -1 -1 -0 -0 -1 -0 -0 -0 -0 -0 -0 -0 -0 -0 -0 -0 -0 -0 -0 -0 -0 -0 -0 -1 -0 -0 -0 -0 -0 -0 -0 -0 -0 -0 -0 -0 -0 -0 -0 -0
Wind_Speed
14 16 18 19 21 23 25 26 28 30 30 31 32 33 33 33 33 33 34 35 34 34 33 33 33 32 32 34 35 37 35 35 31 33 33 32 29 27 27 26 27 26 24
14 16 18 19 21 22 24 27 29 31 31 31 32 33 34 35 34 33 35 35 35 35 35 36 37 36 35 35 34 35 38 37 34 34 33 36 33 32 28 26 27 27 26
15 17 18 19 20 22 25 27 30 32 32 32 33 34 35 35 36 36 36 35 36 35 34 35 35 36 38 38 38 36 36 41 39 35 35 35 38 31 27 28 27 27 27
15 18 20 20 21 23 25 27 30 33 34 35 37 40 40 41 39 40 38 38 37 37 35 36 36 37 37 38 37 37 38 36 42 39 39 42 40 32 30 25 26 26 27
15 19 21 23 24 24 26 29 32 36 38 39 41 41 41 41 42 41 42 42 40 38 37 37 37 39 39 40 39 39 39 38 40 39 40 41 44 44 42 40 27 27 28
16 20 22 24 26 26 28 32 36 39 41 41 42 42 44 44 44 44 45 45 43 41 39 39 40 41 41 41 41 40 39 39 39 38 40 42 41 44 44 46 43 37 29
18 22 25 27 29 30 33 36 40 43 43 44 44 43 43 44 44 44 43 43 42 41 41 40 41 43 44 42 42 42 42 40 40 40 39 38 43 44 42 44 46 44 38
21 24 26 29 31 34 37 40 43 45 45 44 44 43 42 42 41 41 42 43 43 43 43 43 43 43 43 42 42 42 42 40 40 40 40 40 38 39 42 45 43 47 46
24 26 28 30 34 37 40 43 45 45 44 44 44 44 42 41 41 42 42 43 43 42 42 42 42 40 39 39 40 41 41 40 40 39 38 39 40 38 40 42 44 47 50
28 28 29 33 37 39 42 43 44 45 45 45 44 44 43 42 42 42 43 40 39 39 40 42 40 37 35 35 36 37 39 40 41 39 39 39 38 38 38 38 41 44 48
30 31 33 36 39 41 43 44 44 45 45 46 45 44 44 43 42 42 40 37 39 40 39 39 38 34 33 32 33 36 39 39 40 40 40 39 38 39 38 37 38 41 43
32 33 37 39 41 43 43 45 45 45 45 46 45 45 45 45 43 42 40 39 40 38 37 38 35 31 31 29 31 34 37 40 40 41 40 40 38 38 37 38 39 39 41
34 37 39 41 42 44 45 45 45 46 46 46 46 46 45 45 44 42 42 41 40 38 38 36 34 31 29 28 30 33 38 40 40 40 40 40 39 40 38 37 38 38 38
36 38 39 42 44 45 45 46 46 45 46 45 46 46 45 44 44 43 42 40 38 37 36 34 33 32 30 28 30 33 36 38 38 39 38 39 40 40 39 38 38 37 38
38 39 41 45 46 47 46 46 45 45 45 46 45 45 44 44 44 44 42 40 38 37 35 36 34 30 26 27 29 35 31 34 36 39 40 42 43 43 42 39 38 37 38
38 41 44 46 47 48 48 46 45 45 45 46 47 47 46 45 45 43 43 41 39 38 36 36 33 29 26 27 29 28 35 33 37 39 41 41 43 44 44 43 41 41 38
40 44 45 45 46 47 46 46 46 46 46 46 46 46 46 46 46 44 40 38 37 36 34 32 29 26 24 23 29 31 30 35 39 40 41 41 40 39 39 38 38 39 42
43 44 44 45 45 44 44 44 45 46 45 46 47 46 48 47 46 42 40 35 35 33 32 29 26 23 27 22 26 29 32 35 42 42 42 43 42 40 37 34 36 36 37
41 42 43 44 44 44 43 44 44 45 45 46 46 47 47 47 46 43 41 35 28 32 26 26 23 22 28 21 27 27 31 37 43 44 45 45 43 41 36 34 35 38 37
40 42 43 42 42 43 44 44 45 45 45 46 47 46 47 44 46 40 32 28 27 25 25 17 16 12 21 33 40 33 34 43 44 45 45 45 41 38 37 37 38 40 40
40 41 40 41 42 43 43 44 45 46 44 44 46 45 44 42 37 31 27 25 25 19 11 15 23 28 29 35 39 39 41 44 44 44 43 40 37 43 45 46 43 45 40
40 39 40 41 42 41 43 43 45 43 43 44 43 43 41 37 29 25 23 17 9 7 17 20 18 20 27 29 33 36 38 42 44 44 42 40 43 44 43 42 43 43 40
39 39 39 41 41 40 42 42 42 43 43 40 40 37 34 26 21 15 11 8 11 11 14 17 19 21 23 26 29 32 36 38 40 42 44 45 45 45 43 44 45 43 43
39 39 40 41 41 41 41 40 42 39 40 33 26 23 20 20 17 13 10 9 10 11 12 13 15 17 19 22 25 26 28 31 36 40 45 47 46 44 45 43 43 38 37
37 39 39 40 41 40 40 40 43 39 34 21 22 20 18 17 15 13 12 10 10 10 11 14 16 16 18 20 24 27 29 31 29 33 34 38 43 40 35 32 32 33 33
37 37 38 38 39 38 40 41 39 36 19 20 19 18 20 18 16 13 11 6 9 11 14 16 16 16 20 23 25 29 31 33 31 23 24 27 15 22 26 32 31 31 31
Wind_Direction
3 3 3 2 359 358 357 355 352 349 347 345 342 339 336 334 331 328 323 318 315 314 313 311 308 306 299 293 287 283 279 279 282 283 283 283 283 281 279 279 278 278 278
357 356 355 354 354 353 353 350 348 345 343 341 339 336 333 331 330 329 326 324 320 315 311 307 304 303 301 297 293 286 280 276 275 276 281 280 279 277 277 277 277 276 276
348 348 347 348 349 348 346 345 343 342 340 337 335 333 330 327 325 325 324 323 321 318 314 311 308 304 300 295 293 289 283 277 275 270 270 277 274 280 279 274 275 275 274
344 344 343 342 340 340 340 340 339 338 337 335 331 327 324 321 320 319 320 318 316 315 312 310 308 306 303 298 295 291 285 281 275 273 269 269 275 276 275 280 277 277 275
344 343 343 340 339 336 336 335 335 333 332 330 328 326 323 320 318 316 315 315 314 312 310 309 307 303 300 297 293 290 286 282 278 274 272 270 266 267 270 270 279 277 276
342 342 342 342 341 338 336 333 331 330 329 328 326 324 322 320 316 314 312 312 310 309 307 305 304 302 299 296 292 289 286 283 280 278 274 270 267 265 265 264 266 271 275
341 340 340 340 339 337 334 331 330 328 328 326 325 323 321 319 316 314 313 311 309 307 306 303 302 299 297 293 291 287 284 282 280 278 276 273 268 268 267 264 263 266 268
338 337 337 337 336 334 332 330 329 327 327 327 326 324 322 320 317 316 313 311 309 307 306 303 301 299 297 294 290 287 282 281 280 278 276 274 273 268 266 263 263 263 263
334 333 333 334 333 332 331 330 329 328 328 327 326 324 323 320 318 315 313 311 308 306 304 303 300 299 297 295 291 287 282 280 280 279 277 275 273 272 268 266 263 261 260
332 332 331 331 331 331 330 330 329 329 328 328 327 325 323 321 318 316 314 311 310 308 306 305 301 295 293 294 292 287 282 279 278 278 277 275 274 272 271 266 265 261 260
329 331 331 331 330 330 330 330 330 330 329 328 326 325 323 322 319 317 315 312 311 308 305 306 303 295 292 292 291 286 280 278 277 276 275 274 274 273 271 270 266 264 261
327 329 330 330 330 331 331 331 331 330 329 328 327 325 324 322 320 317 315 312 310 307 306 305 302 295 293 291 290 284 280 277 275 275 274 273 273 272 272 269 267 266 263
327 328 329 330 331 331 331 331 332 330 330 330 329 327 326 325 322 319 316 313 310 307 306 303 299 292 291 291 288 283 280 277 275 274 272 272 272 271 272 271 269 267 265
327 328 329 330 331 331 331 332 332 332 332 331 330 329 328 327 325 322 319 316 312 308 305 301 298 293 291 288 287 283 279 276 275 271 270 270 271 271 271 271 270 268 266
328 329 330 331 331 331 332 332 333 333 333 331 331 330 329 327 325 322 319 317 313 310 307 303 299 293 286 286 284 282 277 274 272 269 269 268 268 268 268 270 270 269 265
330 330 331 331 331 331 332 333 333 333 333 332 331 331 329 327 326 323 321 317 314 311 308 302 299 292 287 286 284 274 277 274 270 269 267 268 267 267 267 267 268 267 265
331 331 331 332 332 333 333 333 333 333 332 331 330 331 330 327 325 323 321 317 316 312 308 304 299 292 285 284 284 275 271 272 269 267 265 266 269 270 272 272 271 270 264
331 332 333 333 334 335 335 335 335 334 333 332 332 332 330 328 326 323 320 317 315 315 311 307 300 292 289 286 285 278 271 270 265 264 264 264 267 269 273 274 272 273 268
333 333 334 334 335 336 337 336 335 336 334 334 334 333 332 329 329 326 323 320 317 319 314 310 303 294 290 286 282 279 273 268 261 260 259 260 266 270 276 273 271 269 267
335 335 336 336 337 338 338 337 337 337 337 338 336 334 334 333 332 331 329 328 323 320 320 309 304 264 295 281 267 275 271 258 257 257 256 258 267 273 272 267 266 263 259
336 337 338 338 339 339 340 339 339 340 339 338 339 338 337 337 338 338 338 335 330 332 315 238 235 235 228 237 242 260 255 249 254 256 257 262 268 260 251 251 252 242 254
338 339 339 340 341 342 342 341 341 342 342 342 341 342 342 343 344 342 341 340 321 275 241 237 230 224 230 227 227 229 229 235 241 242 253 262 256 251 251 252 244 245 251
339 341 341 341 343 344 345 343 344 345 344 345 347 347 347 346 345 336 323 286 255 238 233 232 230 229 229 229 228 228 229 229 230 233 239 245 246 245 245 241 240 251 238
340 342 342 343 344 346 347 347 347 347 349 349 346 341 327 309 300 292 275 258 241 231 232 227 226 225 224 224 225 222 221 227 231 237 249 245 241 244 239 249 245 244 222
342 343 344 345 346 349 350 350 350 352 353 340 341 338 320 311 302 287 274 256 239 228 233 235 236 237 237 232 230 228 229 225 221 239 231 212 222 226 237 227 209 205 210
343 345 346 347 349 352 352 352 355 357 336 336 340 329 309 305 301 295 281 255 242 244 245 245 242 244 247 248 240 237 230 222 209 204 200 193 209 204 194 187 192 194 196